• Join FlightAware (Why Join?)
  • Login
  • US Flag 
11:14PM EDT


 

Airport Tracker/Info


-or-


 

Live Flight TrackerFlight Track Log ✈ ASQ2525 ✈ 23-Apr-2013 ✈ KDFW - KCRP

Flight Track Log - Related Links

Times and Time Zones

All times are in EDT time to prevent confusion due to time zone crossing. See the ASQ2525 flight status page for this flight to view local times or setup timezone preferences in your user account.

Time Position Orientation Groundspeed Altitude Reporting Facility
EDT Latitude Longitude Course Direction KTS MPH feet Rate Location/Type
03:01PM 32.9167 -97.0500 348° North 157 181 2,300  Level Dallas / Fort Worth TRACON
03:02PM 32.9833 -97.0667 348° North 247 284 3,900 2,460 Climbing Dallas / Fort Worth TRACON
03:03PM 33.0167 -97.1333 301° West 250 288 7,300 2,700 Climbing Dallas / Fort Worth TRACON
03:04PM 32.9939 -97.2425 256° West 245 282 10,300 1,800 Climbing Fort Worth Center
03:05PM 32.9419 -97.2972 221° Southwest 276 318 11,600 1,500 Climbing Fort Worth Center
03:06PM 32.8417 -97.2897 176° South 294 338 13,300 1,560 Climbing Fort Worth Center
03:07PM 32.7478 -97.2800 175° South 331 381 14,800 1,680 Climbing Fort Worth Center
03:08PM 32.6494 -97.2581 169° South 358 412 16,700 1,680 Climbing Fort Worth Center
03:09PM 32.5514 -97.2383 170° South 358 412 18,200 1,500 Climbing Fort Worth Center
03:10PM 32.4511 -97.2189 171° South 367 422 19,800 1,440 Climbing Fort Worth Center
03:11PM 32.3508 -97.1994 171° South 374 430 21,100 1,260 Climbing Fort Worth Center
03:12PM 32.2444 -97.1947 178° South 374 430 22,400 1,200 Climbing Fort Worth Center
03:13PM 32.1381 -97.2047 185° South 381 438 23,500 1,080 Climbing Fort Worth Center
03:14PM 32.0419 -97.2222 189° South 386 444 24,600 1,140 Climbing Fort Worth Center
03:15PM 31.9397 -97.2347 186° South 380 437 25,800 1,080 Climbing Fort Worth Center
03:16PM 31.8333 -97.2494 187° South 380 437 26,800 660 Climbing Fort Worth Center
03:19PM 31.5894 -97.3047 191° South 391 450 28,000 300 Climbing Houston Center
03:20PM 31.4836 -97.3533 201° Southwest 403 464 28,000  Level Houston Center
03:21PM 31.3594 -97.4114 202° Southwest 407 468 28,000  Level Houston Center
03:22PM 31.2522 -97.4622 202° Southwest 411 473 28,000  Level Houston Center
03:23PM 31.1447 -97.5131 202° Southwest 416 479 28,000  Level Houston Center
03:24PM 31.0367 -97.5633 202° Southwest 418 481 28,000  Level Houston Center
03:25PM 30.9281 -97.6131 201° Southwest 420 483 28,000  Level Houston Center
03:26PM 30.8011 -97.6728 202° Southwest 421 484 28,000  Level Houston Center
03:27PM 30.6928 -97.7222 201° Southwest 416 479 28,000  Level Houston Center
03:28PM 30.5836 -97.7725 202° Southwest 419 482 28,000  Level Houston Center
03:29PM 30.4856 -97.8436 212° Southwest 409 471 28,000  Level Houston Center
03:30PM 30.3892 -97.9144 212° Southwest 407 468 28,000  Level Houston Center
03:31PM 30.2794 -97.9944 212° Southwest 409 471 28,000  Level Houston Center
03:32PM 30.1839 -98.0658 213° Southwest 408 470 28,000  Level Houston Center
03:33PM 30.0808 -98.1422 213° Southwest 408 470 28,000  Level Houston Center
03:34PM 29.9850 -98.2125 212° Southwest 408 470 28,000  Level Houston Center
03:35PM 29.8814 -98.2875 212° Southwest 409 471 28,000  Level Houston Center
03:36PM 29.7844 -98.3583 212° Southwest 411 473 28,000 -240 Level Houston Center
03:37PM 29.6808 -98.4339 212° Southwest 409 471 27,600 -660 Descending Houston Center
03:38PM 29.5706 -98.4414 183° South 450 518 26,700 -1,020 Descending Houston Center
03:39PM 29.4331 -98.4025 166° South 455 524 25,600 -1,020 Descending Houston Center
03:40PM 29.2992 -98.3669 167° South 459 528 24,600 -780 Descending Houston Center
03:41PM 29.1750 -98.3333 167° South 457 526 24,000 -300 Descending Houston Center
03:42PM 29.0436 -98.2981 167° South 450 518 24,000  Level Houston Center
03:43PM 28.9231 -98.2653 167° South 447 514 24,000  Level Houston Center
03:44PM 28.7947 -98.2306 167° South 440 506 24,000 -120 Level Houston Center
03:45PM 28.6964 -98.2050 167° South 441 507 23,800 -1,500 Descending Houston Center
03:47PM 28.5483 -98.1644 166° South 452 520 21,000 -2,460 Descending Houston Center
03:48PM 28.4489 -98.0844 145° Southeast 441 507 18,700 -2,340 Descending Houston Center
03:49PM 28.3683 -97.9886 134° Southeast 434 499 16,200 -2,400 Descending Houston Center
03:50PM 28.2906 -97.8981 134° Southeast 412 474 13,800 -2,340 Descending Houston Center
03:51PM 28.2172 -97.8117 134° Southeast 394 453 11,400 -2,160 Descending Houston Center
03:52PM 28.1406 -97.7250 135° Southeast 294 338 9,500 -2,340 Descending Houston Center
03:53PM 28.0906 -97.6642 133° Southeast 268 308 6,600 -2,460 Descending Houston Center
03:54PM 28.0392 -97.6036 134° Southeast 250 288 4,600 -1,320 Descending Houston Center
03:55PM 27.9889 -97.5464 135° Southeast 243 280 4,000 -780 Descending Houston Center
03:56PM 27.9403 -97.5436 177° South 228 262 3,100 -1,020 Descending Houston Center
03:57PM 27.9036 -97.5936 230° Southwest 209 241 2,100 -480 Descending Houston Center
03:58PM 27.8508 -97.5936 180° South 167 192 2,100 -480 Level Houston Center
03:59PM 27.8203 -97.5625 138° Southeast 148 170 1,200 -840 Descending Houston Center
04:00PM 27.7917 -97.5308 136° Southeast 118 136 500 -660 Descending Houston Center
04:02PM 27.7667 -97.5000 204° Southwest  Level FlightAware Approximate